Wisconsin Dells, Wisconsin, United States (53965)
Lat: 43.63N, Lon: 89.77W
Wx Zone: WIZ057
Local Info
Past Weather Observations for Thursday, March 26, 2015

NOTE: This archive is for the closest National Weather Service station to Wisconsin Dells. Information may differ from the station used for current weather conditions.

Click here for Long-term Archive

Time Weather Temperature Dewpoint Humidity Pressure Winds Precip Visibility
23:50
Clear
23°F / -5°C 9°F / -13°C 54% 30.15 in
(1021 mb)
NNE 3.5 mph
(NNE 6 kph)
- 10SM
23:30
Clear
23°F / -5°C 7°F / -14°C 50% 30.15 in
(1021 mb)
N 5.8 mph
(N 9 kph)
- 10SM
23:10
Clear
23°F / -5°C 10°F / -12°C 58% 30.12 in
(1020 mb)
N 9.2 mph
(N 15 kph)
- 10SM
22:50
Clear
25°F / -4°C 12°F / -11°C 59% 30.12 in
(1020 mb)
NNE 10.4 mph
(NNE 17 kph)
- 10SM
22:30
Clear
25°F / -4°C 12°F / -11°C 59% 30.12 in
(1020 mb)
N 5.8 mph
(N 9 kph)
- 10SM
22:10
Clear
25°F / -4°C 14°F / -10°C 63% 30.12 in
(1020 mb)
N 4.6 mph
(N 7 kph)
- 10SM
21:50
Clear
25°F / -4°C 14°F / -10°C 63% 30.12 in
(1020 mb)
NNE 5.8 mph
(NNE 9 kph)
- 10SM
21:30
Clear
25°F / -4°C 14°F / -10°C 63% 30.12 in
(1020 mb)
N 3.5 mph
(N 6 kph)
- 10SM
21:10
Partly Cloudy
27°F / -3°C 14°F / -10°C 59% 30.09 in
(1019 mb)
N 4.6 mph
(N 7 kph)
- 10SM
20:50
Mostly Cloudy
28°F / -2°C 10°F / -12°C 47% 30.09 in
(1019 mb)
N 5.8 mph
(N 9 kph)
- 10SM
20:30
Overcast
28°F / -2°C 10°F / -12°C 47% 30.09 in
(1019 mb)
N 8.1 mph
(N 13 kph)
- 10SM
20:10
Overcast
30°F / -1°C 12°F / -11°C 47% 30.09 in
(1019 mb)
N 8.1 mph
(N 13 kph)
- 10SM
19:50
Overcast
30°F / -1°C 14°F / -10°C 51% 30.09 in
(1019 mb)
N 13.8 mph
(N 22 kph)
- 10SM
19:30
Overcast
30°F / -1°C 14°F / -10°C 51% 30.09 in
(1019 mb)
N 9.2 mph
(N 15 kph)
- 10SM
19:10
Overcast
30°F / -1°C 16°F / -9°C 55% 30.06 in
(1018 mb)
NNW 11.5 mph
(NNW 19 kph)
- 10SM
18:50
Overcast
30°F / -1°C 16°F / -9°C 55% 30.06 in
(1018 mb)
N 11.5 mph
(N 19 kph)
- 10SM
18:30
Overcast
32°F / 0°C 16°F / -9°C 51% 30.06 in
(1018 mb)
N 8.1 mph
(N 13 kph)
- 10SM
18:10
Overcast
32°F / 0°C 16°F / -9°C 51% 30.04 in
(1017 mb)
N 9.2 mph
(N 15 kph)
- 10SM
17:50
Overcast
32°F / 0°C 16°F / -9°C 51% 30.04 in
(1017 mb)
N 10.4 mph
(N 17 kph)
- 10SM
17:30
Overcast
32°F / 0°C 18°F / -8°C 55% 30.04 in
(1017 mb)
N 8.1 mph
(N 13 kph)
- 10SM
17:10
Overcast
34°F / 1°C 16°F / -9°C 48% 30.04 in
(1017 mb)
N 6.9 mph
(N 11 kph)
- 10SM
16:50
Overcast
34°F / 1°C 18°F / -8°C 51% 30.04 in
(1017 mb)
N 8.1 mph
(N 13 kph)
- 10SM
16:30
Overcast
34°F / 1°C 18°F / -8°C 51% 30.04 in
(1017 mb)
N 10.4 mph
(N 17 kph)
- 10SM
16:10
Overcast
34°F / 1°C 18°F / -8°C 51% 30.04 in
(1017 mb)
NNW 8.1 mph
(NNW 13 kph)
- 10SM
15:50
Overcast
34°F / 1°C 16°F / -9°C 48% 30.01 in
(1016 mb)
NNW 9.2 mph
(NNW 15 kph)
- 10SM
15:30
Overcast
34°F / 1°C 16°F / -9°C 48% 30.01 in
(1016 mb)
NNW 10.4 mph
(NNW 17 kph)
- 10SM
15:10
Overcast
36°F / 2°C 16°F / -9°C 44% 30.01 in
(1016 mb)
NNW 13.8 mph
(NNW 22 kph)
- 10SM
14:50
Overcast
36°F / 2°C 18°F / -8°C 48% 30.01 in
(1016 mb)
NNW 12.7 mph
(NNW 20 kph)
- 10SM
14:30
Overcast
36°F / 2°C 18°F / -8°C 48% 30.01 in
(1016 mb)
NNW 13.8 mph
(NNW 22 kph)
- 10SM
14:10
Overcast
36°F / 2°C 18°F / -8°C 48% 29.98 in
(1015 mb)
NNW 12.7 mph
(NNW 20 kph)
- 10SM
13:50
Overcast
36°F / 2°C 19°F / -7°C 52% 29.98 in
(1015 mb)
NNW 10.4 mph
(NNW 17 kph)
- 10SM
13:30
Overcast
34°F / 1°C 19°F / -7°C 56% 29.98 in
(1015 mb)
NW 10.4 mph
(NW 17 kph)
- 10SM
13:10
Overcast
34°F / 1°C 19°F / -7°C 56% 30.01 in
(1016 mb)
NW 10.4 mph
(NW 17 kph)
- 10SM
12:50
Overcast
34°F / 1°C 19°F / -7°C 56% 30.01 in
(1016 mb)
NW 9.2 mph
(NW 15 kph)
- 10SM
12:30
Overcast
34°F / 1°C 19°F / -7°C 56% 30.01 in
(1016 mb)
NW 13.8 mph
(NW 22 kph)
- 10SM
12:10
Overcast
34°F / 1°C 19°F / -7°C 56% 30.01 in
(1016 mb)
NW 11.5 mph
(NW 19 kph)
- 10SM
11:50
Overcast
34°F / 1°C 19°F / -7°C 56% 30.01 in
(1016 mb)
NW 15 mph
(NW 24 kph)
- 10SM
11:30
Overcast
34°F / 1°C 19°F / -7°C 56% 30.01 in
(1016 mb)
NNW 12.7 mph
(NNW 20 kph)
- 10SM
11:10
Overcast
34°F / 1°C 19°F / -7°C 56% 30.01 in
(1016 mb)
NW 12.7 mph
(NW 20 kph)
- 10SM
10:50
Overcast
34°F / 1°C 19°F / -7°C 56% 30.01 in
(1016 mb)
NW 15 mph
(NW 24 kph)
- 10SM
10:30
Overcast
34°F / 1°C 19°F / -7°C 56% 30.01 in
(1016 mb)
NW 13.8 mph
(NW 22 kph)
- 10SM
10:10
Overcast
34°F / 1°C 19°F / -7°C 56% 30.01 in
(1016 mb)
NW 12.7 mph
(NW 20 kph)
- 10SM
09:50
Overcast
34°F / 1°C 19°F / -7°C 56% 30.01 in
(1016 mb)
NW 15 mph
(NW 24 kph)
- 10SM
09:30
Overcast
34°F / 1°C 19°F / -7°C 56% 30.01 in
(1016 mb)
NW 12.7 mph
(NW 20 kph)
- 10SM
09:10
Overcast
34°F / 1°C 19°F / -7°C 56% 30.01 in
(1016 mb)
NW 11.5 mph
(NW 19 kph)
- 10SM
08:50
Overcast
34°F / 1°C 19°F / -7°C 56% 29.98 in
(1015 mb)
NW 9.2 mph
(NW 15 kph)
- 10SM
08:30
Overcast
32°F / 0°C 19°F / -7°C 60% 30.01 in
(1016 mb)
NW 13.8 mph
(NW 22 kph)
- 10SM
08:10
Overcast
32°F / 0°C 19°F / -7°C 60% 30.01 in
(1016 mb)
NNW 11.5 mph
(NNW 19 kph)
- 10SM
07:50
Overcast
32°F / 0°C 19°F / -7°C 60% 29.98 in
(1015 mb)
NW 12.7 mph
(NW 20 kph)
- 10SM
07:30
Overcast
32°F / 0°C 19°F / -7°C 60% 29.98 in
(1015 mb)
NW 9.2 mph
(NW 15 kph)
- 10SM
07:10
Overcast
32°F / 0°C 19°F / -7°C 60% 29.98 in
(1015 mb)
NW 9.2 mph
(NW 15 kph)
- 10SM
06:50
Overcast
32°F / 0°C 21°F / -6°C 64% 29.98 in
(1015 mb)
NW 10.4 mph
(NW 17 kph)
- 10SM
06:30
Overcast
32°F / 0°C 21°F / -6°C 64% 29.98 in
(1015 mb)
NW 12.7 mph
(NW 20 kph)
- 10SM
06:10
Overcast
32°F / 0°C 21°F / -6°C 64% 29.98 in
(1015 mb)
NW 8.1 mph
(NW 13 kph)
- 10SM
05:50
Overcast
32°F / 0°C 21°F / -6°C 64% 29.98 in
(1015 mb)
NW 8.1 mph
(NW 13 kph)
- 10SM
05:30
Overcast
32°F / 0°C 21°F / -6°C 64% 29.95 in
(1014 mb)
NW 5.8 mph
(NW 9 kph)
- 10SM
05:10
Overcast
32°F / 0°C 21°F / -6°C 64% 29.95 in
(1014 mb)
NW 8.1 mph
(NW 13 kph)
- 10SM
04:50
Overcast
32°F / 0°C 21°F / -6°C 64% 29.95 in
(1014 mb)
NW 9.2 mph
(NW 15 kph)
- 10SM
04:30
Overcast
32°F / 0°C 21°F / -6°C 64% 29.95 in
(1014 mb)
NW 6.9 mph
(NW 11 kph)
- 10SM
04:10
Overcast
32°F / 0°C 21°F / -6°C 64% 29.95 in
(1014 mb)
NW 5.8 mph
(NW 9 kph)
- 10SM
03:50
Overcast
32°F / 0°C 21°F / -6°C 64% 29.95 in
(1014 mb)
NW 9.2 mph
(NW 15 kph)
- 10SM
03:30
Overcast
32°F / 0°C 21°F / -6°C 64% 29.95 in
(1014 mb)
NW 9.2 mph
(NW 15 kph)
- 10SM
03:10
Overcast
32°F / 0°C 21°F / -6°C 64% 29.95 in
(1014 mb)
NW 8.1 mph
(NW 13 kph)
- 10SM
02:50
Overcast
34°F / 1°C 21°F / -6°C 60% 29.95 in
(1014 mb)
NW 11.5 mph
(NW 19 kph)
- 10SM
02:30
Overcast
34°F / 1°C 21°F / -6°C 60% 29.98 in
(1015 mb)
NW 10.4 mph
(NW 17 kph)
- 10SM
02:10
Overcast
34°F / 1°C 21°F / -6°C 60% 29.98 in
(1015 mb)
NW 9.2 mph
(NW 15 kph)
- 10SM
01:50
Overcast
34°F / 1°C 23°F / -5°C 65% 29.98 in
(1015 mb)
NW 10.4 mph
(NW 17 kph)
- 10SM
01:30
Overcast
34°F / 1°C 23°F / -5°C 65% 29.98 in
(1015 mb)
NW 9.2 mph
(NW 15 kph)
- 10SM
01:10
Overcast
34°F / 1°C 23°F / -5°C 65% 30.01 in
(1016 mb)
NW 12.7 mph
(NW 20 kph)
- 10SM
00:50
Overcast
34°F / 1°C 23°F / -5°C 65% 30.01 in
(1016 mb)
NW 11.5 mph
(NW 19 kph)
- 10SM
00:30
Overcast
34°F / 1°C 23°F / -5°C 65% 30.01 in
(1016 mb)
NW 11.5 mph
(NW 19 kph)
- 10SM
00:10
Overcast
36°F / 2°C 23°F / -5°C 60% 30.01 in
(1016 mb)
NW 12.7 mph
(NW 20 kph)
- 10SM
Time Weather Temperature Dewpoint Humidity Pressure Winds Precip Visibility


Weather for websites

WeatherForYou.com, LLC is not responsible for any damages or problems caused by this service. Current weather conditions are obtained from the closest station including government and personal stations which may have varying degrees of accuracy. Weather forecasts are derived from the NOAA NDFD. Like all things, this site belongs to Jesus Christ... He just trusts me to maintain it. If you have any questions or comments email webmaster@weatherforyou.com

Copyright © 2015, WeatherForYou.com LLC. All rights reserved.